Regional Weather Roundup
Issued by NWS Sioux Falls, SD

Home | Current Version | Previous Version | Graphics & Text | Print | Product List | Glossary On
Versions: 1 2 3 4 5 6 7 8 9 10 11 12 13 14 15 16 17 18 19 20 21 22 23 24 25 26 27 28 29 30 31 32 33 34 35 36 37 38 39 40 41 42 43 44 45 46 47 48 49 50
000
ASUS43 KFSD 251502
RWRFSD

WEATHER ROUNDUP FOR SE SOUTH DAKOTA/SW MINNESOTA/NW IOWA
NATIONAL WEATHER SERVICE SIOUX FALLS SD
1000 AM CDT SUN SEP 25 2016

NOTE: "FAIR" INDICATES FEW OR NO CLOUDS BELOW 12,000 FEET WITH NO
SIGNIFICANT WEATHER AND OR OBSTRUCTIONS TO VISIBILITY.


SDZ038>040-050-052>070-251600-
SOUTHEAST SOUTH DAKOTA

CITY           SKY/WX    TMP DP  RH WIND       PRES   REMARKS
CHAMBERLAIN    CLOUDY    61  47  60 NW24G33   30.11R
HURON          CLOUDY    58  47  66 NW24G32   30.01R
MADISON        CLOUDY    55  54  94 W14G29    30.00R
MITCHELL       CLOUDY    59  47  64 NW23G31   30.06R
SIOUX FALLS    CLOUDY    59  49  69 W14G29    30.01R
WINNER         FAIR      60  43  53 NW32G45   30.16R
YANKTON        CLOUDY    61  46  59 W20G33    30.07R
$$

MNZ071-072-080-081-089-090-097-098-251600-
SOUTHWEST MINNESOTA

CITY           SKY/WX    TMP DP  RH WIND       PRES   REMARKS
FAIRMONT       CLOUDY    60  51  72 W15       29.97F
JACKSON        SUNNY     59  46  63 W15G26    29.98S
LUVERNE        CLOUDY    57  46  67 W17       30.01R
MARSHALL       PTSUNNY   60  51  72 W28G33    29.92R
MONTEVIDEO     CLOUDY    59  54  82 NW16      29.91R
PIPESTONE      CLOUDY    57  50  77 W16G24    29.98R
REDWOOD FALLS  SUNNY     60  50  69 W16G29    29.91S
TRACY          SUNNY     61  52  73 W17G25    29.94S
WINDOM         SUNNY     61  48  63 W15G21    29.96S
WORTHINGTON    SUNNY     59  50  72 W17G25    29.99S
$$

IAZ001>003-012>014-020>022-031-032-NEZ013-014-SDZ071-251600-
NORTHWEST IOWA

CITY           SKY/WX    TMP DP  RH WIND       PRES   REMARKS
CHEROKEE       PTSUNNY   59  52  76 W9G22     30.04S
DENISON        CLOUDY    57  50  77 W9        30.07R
ESTHERVILLE    MOSUNNY   60  51  72 W17G23    29.99S
LE MARS        SUNNY     63  50  63 MISG      30.06S
ORANGE CITY    MOSUNNY   61  50  67 W21G26    30.03S
SHELDON        SUNNY     61  50  67 W14G22    30.00F
SIOUX CITY     SUNNY     63  50  62 NW15G23   30.07S
SPENCER        MOSUNNY   59  50  72 W15G22    30.01S
STORM LAKE     MOSUNNY   59  50  72 W16G25    30.04S
$$

ABBREVIATIONS USED IN REMARKS
   TC - TEMPERATURE IN CELSIUS
  WCI - WIND CHILL INDEX
   HX - HEAT INDEX
  VSB - VISIBILITY





USA.gov is the U.S. government's official web portal to all federal, state and local government web resources and services.